[Date Prev][Date Next][Thread Prev][Thread Next] - [Date Index][Thread Index][Author Index]
2 Line ISS Keps 9-19
- Subject: [sarex] 2 Line ISS Keps 9-19
- From: "Dave Larsen PhD" <doc@xxxxxxxxxxx>
- Date: Sun, 19 Sep 2004 04:15:39 -0700
ISS
1 25544U 98067A 04263.13017361 .00022793 00000-0 19093-3 0 7207
2 25544 51.6349 206.2327 0005397 164.0310 33.2507 15.69856801333076
----
Via the sarex mailing list at AMSAT.ORG courtesy of AMSAT-NA.
To unsubscribe, send "unsubscribe sarex" to Majordomo@amsat.org
AMSAT Home